| time (UTC) | temp F | wind direction | speed knots | gust knots | rain 1hr in | rain 24hr in | rain mn in | humidity % | barometer mb |
| 20260505214517 | 80 | 257 | 1.7 | 5.2 | 0.00 | 0.00 | 0.00 | 28 | 1006.0 |
| 20260505214026 | 80 | 303 | 6.1 | 7.8 | 0.00 | 0.00 | 0.00 | 27 | 1006.0 |
| 20260505213517 | 80 | 253 | 3.5 | 5.2 | 0.00 | 0.00 | 0.00 | 28 | 1006.0 |
| 20260505213016 | 80 | 220 | 1.7 | 5.2 | 0.00 | 0.00 | 0.00 | 29 | 1005.0 |
| 20260505212516 | 80 | 170 | 5.2 | 5.2 | 0.00 | 0.00 | 0.00 | 29 | 1005.0 |
| 20260505212016 | 80 | 218 | 4.3 | 7.8 | 0.00 | 0.00 | 0.00 | 28 | 1005.0 |
| 20260505211517 | 82 | 196 | 2.6 | 5.2 | 0.00 | 0.00 | 0.00 | 28 | 1005.0 |
| 20260505211016 | 83 | 303 | 3.5 | 5.2 | 0.00 | 0.00 | 0.00 | 28 | 1005.0 |
| 20260505210518 | 83 | 202 | 0.9 | 4.3 | 0.00 | 0.00 | 0.00 | 27 | 1005.0 |
| 20260505210016 | 82 | 231 | 3.5 | 5.2 | 0.00 | 0.00 | 0.00 | 27 | 1005.0 |
| 20260505205517 | 82 | 206 | 3.5 | 5.2 | 0.00 | 0.00 | 0.00 | 28 | 1005.0 |
| 20260505205016 | 83 | 186 | 3.5 | 4.3 | 0.00 | 0.00 | 0.00 | 27 | 1005.0 |
| 20260505204516 | 82 | 219 | 5.2 | 5.2 | 0.00 | 0.00 | 0.00 | 28 | 1005.0 |
| 20260505204020 | 82 | 320 | 2.6 | 6.1 | 0.00 | 0.00 | 0.00 | 28 | 1005.0 |
| 20260505203516 | 83 | 197 | 1.7 | 13.0 | 0.00 | 0.00 | 0.00 | 26 | 1005.0 |
| 20260505203016 | 84 | 273 | 4.3 | 7.8 | 0.00 | 0.00 | 0.00 | 26 | 1005.0 |
| 20260505202517 | 84 | 276 | 2.6 | 6.1 | 0.00 | 0.00 | 0.00 | 27 | 1005.0 |
| 20260505202017 | 84 | 296 | 1.7 | 4.3 | 0.00 | 0.00 | 0.00 | 28 | 1005.0 |
| 20260505201516 | 84 | 266 | 2.6 | 5.2 | 0.00 | 0.00 | 0.00 | 29 | 1005.0 |
| 20260505201017 | 83 | 111 | 1.7 | 6.1 | 0.00 | 0.00 | 0.00 | 28 | 1005.0 |
| 20260505200517 | 84 | 289 | 8.7 | 8.7 | 0.00 | 0.00 | 0.00 | 29 | 1005.0 |
| 20260505200017 | 83 | 215 | 4.3 | 6.1 | 0.00 | 0.00 | 0.00 | 29 | 1005.0 |
| 20260505195519 | 83 | 1 | 2.6 | 5.2 | 0.00 | 0.00 | 0.00 | 29 | 1005.0 |
| 20260505195016 | 83 | 224 | 0.9 | 6.1 | 0.00 | 0.00 | 0.00 | 29 | 1005.0 |
| 20260505194517 | 84 | 206 | 2.6 | 5.2 | 0.00 | 0.00 | 0.00 | 29 | 1005.0 |
| 20260505194016 | 84 | 265 | 2.6 | 4.3 | 0.00 | 0.00 | 0.00 | 29 | 1006.0 |
| 20260505193517 | 85 | 166 | 0.0 | 6.1 | 0.00 | 0.00 | 0.00 | 28 | 1005.0 |
| 20260505193017 | 84 | 98 | 2.6 | 4.3 | 0.00 | 0.00 | 0.00 | 28 | 1005.0 |
| 20260505192518 | 84 | 271 | 1.7 | 4.3 | 0.00 | 0.00 | 0.00 | 28 | 1005.0 |
| 20260505192017 | 85 | 198 | 1.7 | 4.3 | 0.00 | 0.00 | 0.00 | 28 | 1006.0 |
| 20260505191516 | 84 | 204 | 4.3 | 7.8 | 0.00 | 0.00 | 0.00 | 28 | 1006.0 |
| 20260505191016 | 84 | 146 | 3.5 | 4.3 | 0.00 | 0.00 | 0.00 | 27 | 1006.0 |
| 20260505190516 | 85 | 280 | 1.7 | 7.0 | 0.00 | 0.00 | 0.00 | 28 | 1006.0 |
| 20260505190016 | 84 | 318 | 0.0 | 4.3 | 0.00 | 0.00 | 0.00 | 30 | 1006.0 |
| 20260505185516 | 84 | 168 | 2.6 | 4.3 | 0.00 | 0.00 | 0.00 | 29 | 1006.0 |
| 20260505185017 | 84 | 314 | 2.6 | 4.3 | 0.00 | 0.00 | 0.00 | 29 | 1006.0 |
| 20260505184517 | 83 | 194 | 1.7 | 9.6 | 0.00 | 0.00 | 0.00 | 29 | 1006.0 |
| 20260505184017 | 84 | 221 | 3.5 | 7.0 | 0.00 | 0.00 | 0.00 | 29 | 1006.0 |
| 20260505183517 | 85 | 194 | 1.7 | 4.3 | 0.00 | 0.00 | 0.00 | 29 | 1006.0 |
| 20260505183017 | 85 | 208 | 1.7 | 8.7 | 0.00 | 0.00 | 0.00 | 29 | 1006.0 |
| 20260505182516 | 84 | 146 | 2.6 | 2.6 | 0.00 | 0.00 | 0.00 | 31 | 1006.0 |
| 20260505182019 | 84 | 266 | 0.9 | 5.2 | 0.00 | 0.00 | 0.00 | 30 | 1006.0 |
| 20260505181518 | 85 | 194 | 4.3 | 4.3 | 0.00 | 0.00 | 0.00 | 31 | 1006.0 |
| 20260505181017 | 85 | 22 | 1.7 | 3.5 | 0.00 | 0.00 | 0.00 | 32 | 1006.0 |
| 20260505180518 | 85 | 161 | 1.7 | 3.5 | 0.00 | 0.00 | 0.00 | 30 | 1006.0 |
| 20260505180016 | 85 | 199 | 1.7 | 3.5 | 0.00 | 0.00 | 0.00 | 31 | 1006.0 |
| 20260505175516 | 85 | 195 | 1.7 | 4.3 | 0.00 | 0.00 | 0.00 | 31 | 1006.0 |
| 20260505175016 | 84 | 162 | 3.5 | 5.2 | 0.00 | 0.00 | 0.00 | 32 | 1006.0 |
| 20260505174516 | 84 | 41 | 5.2 | 8.7 | 0.00 | 0.00 | 0.00 | 33 | 1006.0 |
| 20260505174017 | 84 | 273 | 4.3 | 4.3 | 0.00 | 0.00 | 0.00 | 33 | 1006.0 |
| 20260505173517 | 85 | 225 | 5.2 | 7.8 | 0.00 | 0.00 | 0.00 | 31 | 1006.0 |
| 20260505173017 | 85 | 241 | 2.6 | 4.3 | 0.00 | 0.00 | 0.00 | 32 | 1007.0 |
| 20260505172516 | 84 | 145 | 1.7 | 2.6 | 0.00 | 0.00 | 0.00 | 34 | 1007.0 |
| 20260505172017 | 83 | 294 | 1.7 | 5.2 | 0.00 | 0.00 | 0.00 | 34 | 1007.0 |
| 20260505171516 | 83 | 295 | 2.6 | 4.3 | 0.00 | 0.00 | 0.00 | 35 | 1007.0 |
| 20260505171017 | 83 | 175 | 0.0 | 6.1 | 0.00 | 0.00 | 0.00 | 34 | 1007.0 |
| 20260505170517 | 83 | 251 | 5.2 | 7.0 | 0.00 | 0.00 | 0.00 | 34 | 1007.0 |
| 20260505170016 | 82 | 12 | 0.0 | 1.7 | 0.00 | 0.00 | 0.00 | 37 | 1007.0 |
| 20260505165517 | 81 | 341 | 2.6 | 4.3 | 0.00 | 0.00 | 0.00 | 36 | 1007.0 |
| 20260505165018 | 81 | 320 | 1.7 | 3.5 | 0.00 | 0.00 | 0.00 | 37 | 1007.0 |
| 20260505164516 | 82 | 187 | 2.6 | 4.3 | 0.00 | 0.00 | 0.00 | 36 | 1007.0 |
| 20260505164016 | 81 | 174 | 0.9 | 2.6 | 0.00 | 0.00 | 0.00 | 38 | 1007.0 |
| 20260505163516 | 80 | 144 | 1.7 | 2.6 | 0.00 | 0.00 | 0.00 | 39 | 1007.0 |
| 20260505163017 | 80 | 269 | 1.7 | 2.6 | 0.00 | 0.00 | 0.00 | 39 | 1007.0 |
| 20260505162517 | 80 | 212 | 0.0 | 2.6 | 0.00 | 0.00 | 0.00 | 39 | 1008.0 |
| 20260505162018 | 79 | 272 | 2.6 | 4.3 | 0.00 | 0.00 | 0.00 | 39 | 1008.0 |
| 20260505161516 | 79 | 343 | 1.7 | 3.5 | 0.00 | 0.00 | 0.00 | 39 | 1008.0 |
| 20260505161017 | 78 | 106 | 0.9 | 1.7 | 0.00 | 0.00 | 0.00 | 40 | 1008.0 |
| 20260505160517 | 78 | 234 | 0.9 | 2.6 | 0.00 | 0.00 | 0.00 | 40 | 1008.0 |
| 20260505153016 | 74 | 198 | 0.0 | 2.6 | 0.00 | 0.00 | 0.00 | 46 | 1008.0 |
| 20260505152518 | 73 | 116 | 0.0 | 2.6 | 0.00 | 0.00 | 0.00 | 48 | 1008.0 |
| 20260505152017 | 73 | 93 | 0.0 | 1.7 | 0.00 | 0.00 | 0.00 | 48 | 1009.0 |
| 20260505151517 | 73 | 172 | 1.7 | 2.6 | 0.00 | 0.00 | 0.00 | 47 | 1009.0 |
| 20260505151017 | 72 | 276 | 0.0 | 2.6 | 0.00 | 0.00 | 0.00 | 50 | 1009.0 |
| 20260505150518 | 71 | 194 | 2.6 | 5.2 | 0.00 | 0.00 | 0.00 | 51 | 1009.0 |
| 20260505140516 | 65 | 183 | 0.0 | 4.3 | 0.00 | 0.00 | 0.00 | 59 | 1010.0 |
| 20260505125017 | 61 | 197 | 4.3 | 5.2 | 0.00 | 0.00 | 0.00 | 66 | 1010.0 |
| 20260505124519 | 61 | 311 | 2.6 | 5.2 | 0.00 | 0.00 | 0.00 | 67 | 1010.0 |
| 20260505124017 | 61 | 243 | 1.7 | 4.3 | 0.00 | 0.00 | 0.00 | 68 | 1009.0 |
| 20260505123517 | 60 | 271 | 1.7 | 6.1 | 0.00 | 0.00 | 0.00 | 69 | 1009.0 |
| 20260505123017 | 60 | 287 | 3.5 | 6.1 | 0.00 | 0.00 | 0.00 | 70 | 1009.0 |
| 20260505122517 | 60 | 309 | 1.7 | 2.6 | 0.00 | 0.00 | 0.00 | 70 | 1009.0 |
| 20260505122016 | 60 | 253 | 2.6 | 3.5 | 0.00 | 0.00 | 0.00 | 70 | 1009.0 |
| 20260505121517 | 59 | 261 | 3.5 | 3.5 | 0.00 | 0.00 | 0.00 | 69 | 1009.0 |
| 20260505121016 | 59 | 193 | 2.6 | 3.5 | 0.00 | 0.00 | 0.00 | 71 | 1009.0 |
| 20260505120517 | 59 | 37 | 0.9 | 4.3 | 0.00 | 0.00 | 0.00 | 70 | 1009.0 |
| 20260505120017 | 59 | 88 | 0.9 | 3.5 | 0.00 | 0.00 | 0.00 | 70 | 1009.0 |
| 20260505115516 | 58 | 215 | 2.6 | 5.2 | 0.00 | 0.00 | 0.00 | 71 | 1009.0 |
| 20260505115017 | 58 | 168 | 4.3 | 5.2 | 0.00 | 0.00 | 0.00 | 72 | 1009.0 |
| 20260505114517 | 58 | 292 | 2.6 | 2.6 | 0.00 | 0.00 | 0.00 | 72 | 1010.0 |
| 20260505114017 | 58 | 249 | 1.7 | 3.5 | 0.00 | 0.00 | 0.00 | 72 | 1009.0 |
| 20260505113517 | 58 | 161 | 1.7 | 3.5 | 0.00 | 0.00 | 0.00 | 74 | 1009.0 |
| 20260505113017 | 58 | 214 | 2.6 | 4.3 | 0.00 | 0.00 | 0.00 | 73 | 1010.0 |
| 20260505112518 | 58 | 118 | 0.9 | 3.5 | 0.00 | 0.00 | 0.00 | 74 | 1009.0 |
| 20260505112016 | 58 | 236 | 0.0 | 2.6 | 0.00 | 0.00 | 0.00 | 75 | 1009.0 |
| 20260505111517 | 57 | 195 | 2.6 | 6.1 | 0.00 | 0.00 | 0.00 | 77 | 1010.0 |
| 20260505111017 | 57 | 197 | 2.6 | 4.3 | 0.00 | 0.00 | 0.00 | 79 | 1010.0 |
| 20260505110517 | 57 | 252 | 1.7 | 4.3 | 0.00 | 0.00 | 0.00 | 80 | 1009.0 |
| 20260505102018 | 58 | 241 | 3.5 | 4.3 | 0.00 | 0.00 | 0.00 | 72 | 1009.0 |
| 20260505101518 | 59 | 212 | 0.9 | 4.3 | 0.00 | 0.00 | 0.00 | 65 | 1009.0 |
| 20260505101016 | 59 | 281 | 0.9 | 4.3 | 0.00 | 0.00 | 0.00 | 64 | 1009.0 |
| 20260505100516 | 58 | 274 | 5.2 | 7.0 | 0.00 | 0.00 | 0.00 | 65 | 1009.0 |
| 20260505100017 | 58 | 165 | 1.7 | 5.2 | 0.00 | 0.00 | 0.00 | 65 | 1009.0 |
| 20260505095516 | 58 | 292 | 0.0 | 3.5 | 0.00 | 0.00 | 0.00 | 65 | 1009.0 |
| 20260505095016 | 58 | 207 | 0.9 | 3.5 | 0.00 | 0.00 | 0.00 | 65 | 1009.0 |
| 20260505094520 | 58 | 173 | 1.7 | 3.5 | 0.00 | 0.00 | 0.00 | 66 | 1009.0 |
| 20260505094016 | 58 | 266 | 0.9 | 3.5 | 0.00 | 0.00 | 0.00 | 66 | 1009.0 |
| 20260505093516 | 57 | 254 | 1.7 | 2.6 | 0.00 | 0.00 | 0.00 | 66 | 1009.0 |
| 20260505093018 | 57 | 178 | 0.9 | 3.5 | 0.00 | 0.00 | 0.00 | 66 | 1009.0 |
| 20260505092516 | 57 | 219 | 1.7 | 2.6 | 0.00 | 0.00 | 0.00 | 66 | 1008.0 |
| 20260505092016 | 57 | 231 | 0.0 | 1.7 | 0.00 | 0.00 | 0.00 | 66 | 1009.0 |
| 20260505091516 | 58 | 284 | 0.0 | 2.6 | 0.00 | 0.00 | 0.00 | 66 | 1009.0 |
| 20260505091016 | 58 | 218 | 0.0 | 2.6 | 0.00 | 0.00 | 0.00 | 66 | 1009.0 |
| 20260505090516 | 58 | 248 | 0.0 | 2.6 | 0.00 | 0.00 | 0.00 | 66 | 1008.0 |
| 20260505090016 | 58 | 163 | 2.6 | 2.6 | 0.00 | 0.00 | 0.00 | 65 | 1008.0 |
| 20260505085519 | 57 | 177 | 2.6 | 2.6 | 0.00 | 0.00 | 0.00 | 66 | 1008.0 |
| 20260505085016 | 57 | 154 | 1.7 | 2.6 | 0.00 | 0.00 | 0.00 | 66 | 1008.0 |
| 20260505084517 | 58 | 190 | 1.7 | 1.7 | 0.00 | 0.00 | 0.00 | 65 | 1008.0 |
| 20260505084016 | 58 | 35 | 0.0 | 2.6 | 0.00 | 0.00 | 0.00 | 65 | 1008.0 |
| 20260505083517 | 58 | 292 | 0.9 | 2.6 | 0.00 | 0.00 | 0.00 | 64 | 1008.0 |
| 20260505083016 | 58 | 265 | 1.7 | 2.6 | 0.00 | 0.00 | 0.00 | 64 | 1008.0 |
| 20260505082516 | 58 | 249 | 4.3 | 4.3 | 0.00 | 0.00 | 0.00 | 64 | 1008.0 |
| 20260505082016 | 58 | 315 | 0.0 | 2.6 | 0.00 | 0.00 | 0.00 | 64 | 1008.0 |
| 20260505081517 | 58 | 241 | 0.9 | 4.3 | 0.00 | 0.00 | 0.00 | 64 | 1008.0 |
| 20260505081017 | 58 | 182 | 1.7 | 1.7 | 0.00 | 0.00 | 0.00 | 65 | 1008.0 |
| 20260505080516 | 58 | 283 | 1.7 | 1.7 | 0.00 | 0.00 | 0.00 | 64 | 1008.0 |
| 20260505080017 | 58 | 180 | 0.0 | 3.5 | 0.00 | 0.00 | 0.00 | 65 | 1008.0 |
| 20260505075517 | 58 | 300 | 0.0 | 2.6 | 0.00 | 0.00 | 0.00 | 64 | 1008.0 |
| 20260505075017 | 58 | 200 | 0.9 | 4.3 | 0.00 | 0.00 | 0.00 | 64 | 1008.0 |
| 20260505074517 | 58 | 319 | 0.0 | 3.5 | 0.00 | 0.00 | 0.00 | 64 | 1008.0 |
| 20260505074016 | 58 | 169 | 2.6 | 2.6 | 0.00 | 0.00 | 0.00 | 64 | 1008.0 |
| 20260505073516 | 58 | 186 | 2.6 | 3.5 | 0.00 | 0.00 | 0.00 | 64 | 1008.0 |
| 20260505073016 | 58 | 302 | 0.0 | 3.5 | 0.00 | 0.00 | 0.00 | 64 | 1008.0 |
| 20260505072517 | 58 | 11 | 0.9 | 3.5 | 0.00 | 0.00 | 0.00 | 65 | 1008.0 |
| 20260505072017 | 58 | 227 | 2.6 | 2.6 | 0.00 | 0.00 | 0.00 | 65 | 1008.0 |
| 20260505071518 | 58 | 174 | 0.0 | 4.3 | 0.00 | 0.00 | 0.00 | 65 | 1008.0 |
| 20260505071017 | 58 | 168 | 1.7 | 2.6 | 0.00 | 0.00 | 0.00 | 65 | 1008.0 |
| 20260505070517 | 58 | 271 | 0.9 | 3.5 | 0.00 | 0.00 | 0.00 | 65 | 1008.0 |
| 20260505070017 | 58 | 235 | 2.6 | 2.6 | 0.00 | 0.00 | 0.00 | 65 | 1008.0 |
| 20260505065517 | 58 | 328 | 1.7 | 9.6 | 0.00 | 0.00 | 0.00 | 65 | 1008.0 |
| 20260505065017 | 58 | 200 | 0.0 | 2.6 | 0.00 | 0.00 | 0.00 | 66 | 1008.0 |
| 20260505064516 | 57 | 168 | 0.0 | 3.5 | 0.00 | 0.00 | 0.00 | 66 | 1008.0 |
| 20260505064016 | 57 | 149 | 2.6 | 2.6 | 0.00 | 0.00 | 0.00 | 66 | 1008.0 |
| 20260505063517 | 58 | 170 | 0.9 | 2.6 | 0.00 | 0.00 | 0.00 | 66 | 1009.0 |
| 20260505063016 | 57 | 309 | 0.9 | 4.3 | 0.00 | 0.00 | 0.00 | 66 | 1009.0 |
| 20260505062517 | 57 | 140 | 0.0 | 3.5 | 0.00 | 0.00 | 0.00 | 66 | 1009.0 |
| 20260505062016 | 57 | 176 | 1.7 | 2.6 | 0.00 | 0.00 | 0.00 | 66 | 1008.0 |
| 20260505061516 | 57 | 167 | 0.9 | 2.6 | 0.00 | 0.00 | 0.00 | 67 | 1008.0 |
| 20260505061016 | 57 | 165 | 1.7 | 2.6 | 0.00 | 0.00 | 0.00 | 67 | 1009.0 |
| 20260505060516 | 56 | 296 | 0.9 | 2.6 | 0.00 | 0.00 | 0.00 | 67 | 1009.0 |
| 20260505060017 | 56 | 328 | 0.0 | 2.6 | 0.00 | 0.00 | 0.00 | 67 | 1009.0 |
| 20260505055516 | 56 | 301 | 0.0 | 1.7 | 0.00 | 0.00 | 0.00 | 66 | 1009.0 |
| 20260505055017 | 57 | 221 | 0.0 | 0.9 | 0.00 | 0.00 | 0.00 | 66 | 1009.0 |
| 20260505054516 | 57 | 251 | 0.9 | 1.7 | 0.00 | 0.00 | 0.00 | 66 | 1009.0 |
| 20260505054016 | 57 | 202 | 0.0 | 2.6 | 0.00 | 0.00 | 0.00 | 67 | 1009.0 |
| 20260505053516 | 57 | 283 | 0.9 | 1.7 | 0.00 | 0.00 | 0.00 | 67 | 1008.0 |
| 20260505053016 | 57 | 237 | 0.9 | 1.7 | 0.00 | 0.00 | 0.00 | 66 | 1009.0 |
| 20260505052516 | 57 | 286 | 0.0 | 3.5 | 0.00 | 0.00 | 0.00 | 66 | 1009.0 |
| 20260505052016 | 57 | 143 | 0.0 | 1.7 | 0.00 | 0.00 | 0.00 | 65 | 1009.0 |
| 20260505051516 | 57 | 124 | 0.9 | 1.7 | 0.00 | 0.00 | 0.00 | 65 | 1009.0 |
| 20260505051016 | 57 | 217 | 1.7 | 6.1 | 0.00 | 0.00 | 0.00 | 64 | 1009.0 |
| 20260505050516 | 57 | 140 | 0.9 | 3.5 | 0.00 | 0.00 | 0.00 | 64 | 1009.0 |
| 20260505041516 | 58 | 156 | 1.7 | 2.6 | 0.00 | 0.00 | 0.00 | 57 | 1009.0 |
| 20260505041017 | 58 | 142 | 0.9 | 2.6 | 0.00 | 0.00 | 0.00 | 56 | 1009.0 |
| 20260505040518 | 58 | 167 | 1.7 | 2.6 | 0.00 | 0.00 | 0.00 | 56 | 1009.0 |
| 20260505040016 | 58 | 163 | 1.7 | 2.6 | 0.00 | 0.00 | 0.00 | 55 | 1009.0 |
| 20260505035516 | 59 | 201 | 0.0 | 2.6 | 0.00 | 0.00 | 0.00 | 54 | 1009.0 |
| 20260505035016 | 59 | 186 | 1.7 | 1.7 | 0.00 | 0.00 | 0.00 | 54 | 1009.0 |
| 20260505034516 | 59 | 327 | 0.9 | 2.6 | 0.00 | 0.00 | 0.00 | 53 | 1009.0 |
| 20260505034016 | 59 | 165 | 1.7 | 2.6 | 0.00 | 0.00 | 0.00 | 53 | 1009.0 |
| 20260505033517 | 59 | 167 | 1.7 | 2.6 | 0.00 | 0.00 | 0.00 | 53 | 1009.0 |
| 20260505033016 | 59 | 177 | 1.7 | 2.6 | 0.00 | 0.00 | 0.00 | 52 | 1009.0 |
| 20260505032516 | 59 | 163 | 1.7 | 2.6 | 0.00 | 0.00 | 0.00 | 52 | 1009.0 |
| 20260505032017 | 59 | 92 | 0.9 | 2.6 | 0.00 | 0.00 | 0.00 | 51 | 1009.0 |
| 20260505031516 | 60 | 123 | 1.7 | 1.7 | 0.00 | 0.00 | 0.00 | 50 | 1009.0 |
| 20260505031016 | 60 | 175 | 0.9 | 2.6 | 0.00 | 0.00 | 0.00 | 49 | 1009.0 |
| 20260505030516 | 60 | 22 | 1.7 | 2.6 | 0.00 | 0.00 | 0.00 | 49 | 1009.0 |
| 20260505030016 | 60 | 175 | 1.7 | 2.6 | 0.00 | 0.00 | 0.00 | 48 | 1009.0 |
| 20260505025516 | 60 | 169 | 0.0 | 1.7 | 0.00 | 0.00 | 0.00 | 48 | 1009.0 |
| 20260505025016 | 60 | 32 | 0.9 | 2.6 | 0.00 | 0.00 | 0.00 | 47 | 1009.0 |
| 20260505024516 | 60 | 144 | 0.0 | 2.6 | 0.00 | 0.00 | 0.00 | 47 | 1009.0 |
| 20260505024016 | 60 | 175 | 1.7 | 1.7 | 0.00 | 0.00 | 0.00 | 47 | 1009.0 |
| 20260505023516 | 60 | 40 | 0.0 | 0.9 | 0.00 | 0.00 | 0.00 | 47 | 1009.0 |
| 20260505023016 | 61 | 168 | 0.0 | 1.7 | 0.00 | 0.00 | 0.00 | 46 | 1009.0 |
| 20260505022516 | 61 | 267 | 0.0 | 1.7 | 0.00 | 0.00 | 0.00 | 46 | 1009.0 |
| 20260505022017 | 61 | 164 | 0.0 | 2.6 | 0.00 | 0.00 | 0.00 | 45 | 1009.0 |
| 20260505021516 | 62 | 176 | 0.0 | 1.7 | 0.00 | 0.00 | 0.00 | 45 | 1009.0 |
| 20260505021018 | 62 | 338 | 0.0 | 1.7 | 0.00 | 0.00 | 0.00 | 44 | 1009.0 |
| 20260505020517 | 62 | 293 | 0.0 | 2.6 | 0.00 | 0.00 | 0.00 | 44 | 1009.0 |
| 20260505020017 | 62 | 306 | 0.0 | 2.6 | 0.00 | 0.00 | 0.00 | 44 | 1009.0 |
| 20260505015516 | 62 | 142 | 0.0 | 1.7 | 0.00 | 0.00 | 0.00 | 44 | 1009.0 |
| 20260505015016 | 62 | 176 | 0.9 | 1.7 | 0.00 | 0.00 | 0.00 | 43 | 1009.0 |
| 20260505014516 | 62 | 296 | 0.0 | 2.6 | 0.00 | 0.00 | 0.00 | 43 | 1009.0 |
| 20260505014017 | 63 | 1 | 0.0 | 2.6 | 0.00 | 0.00 | 0.00 | 43 | 1009.0 |
| 20260505013516 | 63 | 316 | 0.9 | 2.6 | 0.00 | 0.00 | 0.00 | 42 | 1009.0 |
| 20260505013017 | 63 | 144 | 1.7 | 2.6 | 0.00 | 0.00 | 0.00 | 42 | 1009.0 |
| 20260505012517 | 63 | 188 | 0.9 | 3.5 | 0.00 | 0.00 | 0.00 | 42 | 1009.0 |
| 20260505012016 | 63 | 179 | 0.9 | 2.6 | 0.00 | 0.00 | 0.00 | 42 | 1009.0 |
| 20260505011517 | 63 | 176 | 0.9 | 2.6 | 0.00 | 0.00 | 0.00 | 42 | 1009.0 |
| 20260505011016 | 63 | 180 | 1.7 | 2.6 | 0.00 | 0.00 | 0.00 | 42 | 1009.0 |
| 20260505010516 | 63 | 255 | 0.9 | 2.6 | 0.00 | 0.00 | 0.00 | 42 | 1008.0 |
| 20260505010016 | 64 | 155 | 0.9 | 2.6 | 0.00 | 0.00 | 0.00 | 41 | 1008.0 |
| 20260505005516 | 64 | 221 | 1.7 | 1.7 | 0.00 | 0.00 | 0.00 | 41 | 1008.0 |
| 20260505005016 | 64 | 278 | 1.7 | 2.6 | 0.00 | 0.00 | 0.00 | 41 | 1008.0 |
| 20260505004517 | 64 | 180 | 0.0 | 2.6 | 0.00 | 0.00 | 0.00 | 41 | 1008.0 |
| 20260505004018 | 64 | 124 | 0.0 | 2.6 | 0.00 | 0.00 | 0.00 | 41 | 1008.0 |
| 20260505003517 | 64 | 182 | 0.0 | 1.7 | 0.00 | 0.00 | 0.00 | 41 | 1008.0 |
| 20260505003017 | 64 | 147 | 0.9 | 1.7 | 0.00 | 0.00 | 0.00 | 40 | 1008.0 |
| 20260505002516 | 65 | 84 | 0.0 | 2.6 | 0.00 | 0.00 | 0.00 | 40 | 1008.0 |
| 20260505002016 | 65 | 313 | 0.9 | 4.3 | 0.00 | 0.00 | 0.00 | 39 | 1008.0 |
| 20260505001516 | 65 | 228 | 0.9 | 2.6 | 0.00 | 0.00 | 0.00 | 39 | 1008.0 |
| 20260505001016 | 65 | 278 | 0.9 | 2.6 | 0.00 | 0.00 | 0.00 | 39 | 1008.0 |
| 20260505000517 | 65 | 159 | 0.9 | 2.6 | 0.00 | 0.00 | 0.00 | 39 | 1008.0 |
| 20260505000017 | 66 | 210 | 0.9 | 3.5 | 0.00 | 0.00 | 0.00 | 38 | 1008.0 |
| 20260504235518 | 66 | 138 | 0.9 | 3.5 | 0.00 | 0.00 | 0.00 | 38 | 1007.0 |
| 20260504235016 | 66 | 201 | 1.7 | 3.5 | 0.00 | 0.00 | 0.00 | 38 | 1007.0 |
| 20260504234516 | 67 | 183 | 2.6 | 2.6 | 0.00 | 0.00 | 0.00 | 38 | 1007.0 |
| 20260504234016 | 67 | 25 | 0.0 | 2.6 | 0.00 | 0.00 | 0.00 | 37 | 1007.0 |
| 20260504233516 | 67 | 198 | 1.7 | 3.5 | 0.00 | 0.00 | 0.00 | 37 | 1007.0 |
| 20260504233016 | 67 | 292 | 2.6 | 2.6 | 0.00 | 0.00 | 0.00 | 37 | 1007.0 |
| 20260504232516 | 68 | 295 | 2.6 | 2.6 | 0.00 | 0.00 | 0.00 | 36 | 1007.0 |
| 20260504232022 | 68 | 209 | 0.9 | 1.7 | 0.00 | 0.00 | 0.00 | 37 | 1007.0 |
| 20260504231516 | 68 | 259 | 0.0 | 5.2 | 0.00 | 0.00 | 0.00 | 36 | 1007.0 |
| 20260504231016 | 68 | 191 | 2.6 | 2.6 | 0.00 | 0.00 | 0.00 | 35 | 1007.0 |
| 20260504230517 | 69 | 282 | 2.6 | 3.5 | 0.00 | 0.00 | 0.00 | 35 | 1007.0 |
| 20260504230016 | 69 | 208 | 0.9 | 2.6 | 0.00 | 0.00 | 0.00 | 35 | 1007.0 |
| 20260504225518 | 69 | 186 | 0.0 | 4.3 | 0.00 | 0.00 | 0.00 | 34 | 1007.0 |
| 20260504225016 | 69 | 177 | 0.9 | 2.6 | 0.00 | 0.00 | 0.00 | 35 | 1007.0 |
| 20260504224517 | 69 | 137 | 0.0 | 3.5 | 0.00 | 0.00 | 0.00 | 34 | 1007.0 |
| 20260504224017 | 69 | 164 | 1.7 | 7.8 | 0.00 | 0.00 | 0.00 | 34 | 1007.0 |
| 20260504223517 | 70 | 297 | 0.9 | 5.2 | 0.00 | 0.00 | 0.00 | 33 | 1007.0 |
| 20260504223016 | 70 | 32 | 0.0 | 0.9 | 0.00 | 0.00 | 0.00 | 34 | 1007.0 |
| 20260504222517 | 70 | 189 | 1.7 | 6.1 | 0.00 | 0.00 | 0.00 | 33 | 1007.0 |
| 20260504222016 | 70 | 154 | 0.0 | 3.5 | 0.00 | 0.00 | 0.00 | 32 | 1007.0 |
| 20260504221516 | 71 | 189 | 3.5 | 3.5 | 0.00 | 0.00 | 0.00 | 32 | 1007.0 |
| 20260504221017 | 72 | 267 | 2.6 | 6.1 | 0.00 | 0.00 | 0.00 | 31 | 1007.0 |
| 20260504220516 | 72 | 315 | 0.0 | 2.6 | 0.00 | 0.00 | 0.00 | 32 | 1007.0 |
| 20260504220016 | 73 | 234 | 0.9 | 2.6 | 0.00 | 0.00 | 0.00 | 32 | 1007.0 |
| 20260504215516 | 73 | 263 | 1.7 | 3.5 | 0.00 | 0.00 | 0.00 | 30 | 1007.0 |
| 20260504215016 | 74 | 218 | 0.9 | 4.3 | 0.00 | 0.00 | 0.00 | 29 | 1007.0 |